Regional Weather Roundup
Issued by NWS Portland, ME

Current Version | Previous Version | Text Only | Print | Product List | Glossary Off
Versions: 1 2 3 4 5 6 7 8 9 10 11 12 13 14 15 16 17 18 19 20 21 22 23 24 25 26 27 28 29 30 31 32 33 34 35 36 37 38 39 40 41 42 43 44 45 46 47 48 49 50
145 ASUS41 KGYX 231205 RWRGYX WEATHER ROUNDUP FOR MAINE AND NEW HAMPSHIRE NATIONAL WEATHER SERVICE GRAY ME 800 AM EDT SAT JUN 23 2018 MEZ002-005-006-010-012-015-018-020-021-024-026-027-029-231300- MAINE CITY SKY/WX TMP DP RH WIND PRES REMARKS PORTLAND CLOUDY 59 56 89 CALM 30.04S 6HR MIN TEMP: 53; 6HR MAX TEMP: 59; 6HR PCP: 0.01; SANFORD FAIR 56 54 93 CALM 30.04S BAR HARBOR FAIR 60 54 80 S8 30.06F WISCASSET FAIR 60 54 80 CALM 30.05S 6HR MIN TEMP: 49; 6HR MAX TEMP: 61; ROCKLAND FAIR 62 56 80 S6 30.05S FRYEBURG FAIR 58 56 93 CALM 30.04R 6HR MIN TEMP: 50; 6HR MAX TEMP: 58; LEWISTONAUBURN FAIR 57 52 83 S3 30.04S AUGUSTA FAIR 60 52 74 S3 30.03F 6HR MIN TEMP: 53; 6HR MAX TEMP: 60; WATERVILLE FAIR 60 53 77 VRB5 30.01S BANGOR CLOUDY 61 51 70 S8 30.04S 6HR MIN TEMP: 52; 6HR MAX TEMP: 61; GREENVILLE N/A 57 51 80 SE3 30.00R 6HR MIN TEMP: 50; 6HR MAX TEMP: 58; MILLINOCKET FAIR 61 50 67 VRB5 30.01F 6HR MIN TEMP: 52; 6HR MAX TEMP: 61; HOULTON FAIR 57 48 72 S10 29.99S 6HR MIN TEMP: 52; 6HR MAX TEMP: 57; PRESQUE ISLE FAIR 58 50 75 SE5 29.99R 6HR MIN TEMP: 48; 6HR MAX TEMP: 58; FRENCHVILLE FAIR 62 49 62 S8 29.95R 6HR MIN TEMP: 54; 6HR MAX TEMP: 62; CARIBOU FAIR 60 49 66 S7 29.96S 6HR MIN TEMP: 50; 6HR MAX TEMP: 60; $$ NHZ002-005-008-009-011-012-014-231300- NEW HAMPSHIRE CITY SKY/WX TMP DP RH WIND PRES REMARKS PORTSMOUTH CLOUDY 60 54 80 CALM 30.01F ROCHESTER PTSUNNY 56 55 97 CALM 30.02F 6HR MIN TEMP: 53; 6HR MAX TEMP: 56; 6HR PCP: 0.01; NASHUA CLOUDY 60 55 83 CALM 30.01F MANCHESTER CLOUDY 62 53 72 E5 30.00F 6HR MIN TEMP: 59; 6HR MAX TEMP: 64; 6HR PCP: 0.01; CONCORD CLOUDY 58 54 86 CALM 30.02F 6HR MIN TEMP: 54; 6HR MAX TEMP: 60; 6HR PCP: 0.01; LACONIA CLOUDY 60 49 66 CALM 30.03F PLYMOUTH CLOUDY 56 53 89 CALM 30.02S BERLIN FAIR 56 51 84 N5 30.01F 6HR MIN TEMP: 46; 6HR MAX TEMP: 56; WHITEFIELD FAIR 58 53 84 CALM 30.00F 6HR MIN TEMP: 48; 6HR MAX TEMP: 58; JAFFREY N/A 57 55 93 VRB5 30.01F 6HR MIN TEMP: 54; 6HR MAX TEMP: 60; 6HR PCP: 0.05; KEENE CLOUDY 60 53 77 N5 30.00F LEBANON CLOUDY 63 53 70 CALM 30.00R 6HR MIN TEMP: 57; 6HR MAX TEMP: 63; 6HR PCP: TRACE; MT WASHINGTON NOT AVBL $$ VTZ005-007-008-231300- VERMONT CITY SKY/WX TMP DP RH WIND PRES REMARKS ST JOHNSBURY N/A 60 53 77 MISG 29.98F MONTPELIER FAIR 60 55 83 S5 30.03S BURLINGTON PTSUNNY 69 52 54 S9 29.95S $$ MAZ007-012-024-CTZ003-RIZ002-NYZ038-NYZ072-231300- SOUTHERN NEW ENGLAND AND NY CITY SKY/WX TMP DP RH WIND PRES REMARKS BOSTON CLOUDY 63 56 78 E12 30.00F WORCESTER CLOUDY 58 47 66 E8 29.99F NANTUCKET RAIN 57 56 96 E15 29.96F FOG PROVIDENCE CLOUDY 62 52 69 NE8 29.97F HARTFORD CLOUDY 60 55 83 N6 29.96F ALBANY CLOUDY 65 47 52 SE3 29.95F NEW YORK CITY CLOUDY 65 52 62 NE15 29.89S $$ ANZ081-ANZ082-ANZ150-NHZ014-MEZ023>029-231300- COASTAL MARINE OBSERVATIONS STATION/POSITION TIME TEMP WIND PRES WAVE AIR SEA DIR/SP/G HT/PER (UTC) (F) (DEG/KT/KT) (MB) (FT/S) MOUNT DESERT ROC 1100 55 130/ 9/ 9 1018.4R MATINICUS ROCK 1100 56 160/ 8/ 8 1017.6R ISLE OF SHOALS 1100 60 100/ 7/ 7 1016.4R JEFFREYS LEDGE 1136 62 N/A 1/14 $$ .............KEY.............. WCI - WIND CHILL TC - TEMPERATURE IN CELSIUS VSB - VISIBILITY IN MILES HX - HEAT INDEX FAIR- INDICATES FEW OR NO CLOUDS BELOW 12,000 FT, WITH NO SIGNIFICANT WEATHER AND/OR OBSTRUCTIONS TO VISIBILITY.

USA.gov is the U.S. government's official web portal to all federal, state and local government web resources and services.